Hourly Data Report for October 30, 2016

All times are specified in Local Standard Time (LST). Add 1 hour to adjust for Daylight Saving Time where and when it is observed.

PENTICTON A
BRITISH COLUMBIA

49°27'45.000" N
119°36'08.000" W
344.40 m
1126146
71889
YYF

Download Data

Hourly Data (October 2016)
Hourly Data Report for October 30, 2016
Temp Definition
°C
Dew Point Temp Definition
°C
Rel Hum Definition
%
Wind Dir Definition
10's deg

Wind Spd Definition
km/h
Visibility Definition
km
Stn Press Definition
kPa
Hmdx Definition


Wind Chill Definition


Weather Definition


TIME
00:00 Legend Double Dagger 5.4 4.5 94 1 8 24.1 97.47     LegendNANA
01:00 Legend Double Dagger 5.8 4.8 93 34 5 24.1 97.44     Cloudy
02:00 Legend Double Dagger 5.8 4.6 92 36 4 24.1 97.41     LegendNANA
03:00 Legend Double Dagger 5.8 4.9 94 36 3 24.1 97.37     LegendNANA
04:00 Legend Double Dagger 6.0 4.8 92 3 3 24.1 97.36     Cloudy
05:00 Legend Double Dagger 6.0 4.8 92 5 3 24.1 97.36     LegendNANA
06:00 Legend Double Dagger 6.5 4.7 88 36 5 24.1 97.33     LegendNANA
07:00 Legend Double Dagger 6.0 4.8 92 36 5 24.1 97.28     Mostly Cloudy
08:00 Legend Double Dagger 6.9 5.4 90 36 1 24.1 97.23     LegendNANA
09:00 Legend Double Dagger 8.3 5.8 84 36 2 24.1 97.21     LegendNANA
10:00 Legend Double Dagger 9.0 5.9 81 34 8 24.1 97.12     Mostly Cloudy
11:00 Legend Double Dagger 9.8 6.2 78 1 17 24.1 97.04     LegendNANA
12:00 Legend Double Dagger 9.4 5.4 76 35 17 24.1 96.91     LegendNANA
13:00 Legend Double Dagger 10.7 5.7 71 1 18 24.1 96.80     Mostly Cloudy
14:00 Legend Double Dagger 9.6 5.4 75 36 21 24.1 96.68     LegendNANA
15:00 Legend Double Dagger 9.5 5.9 78 35 13 24.1 96.59     LegendNANA
16:00 Legend Double Dagger 9.0 6.1 82 36 14 24.1 96.49     Cloudy
17:00 Legend Double Dagger 8.7 5.6 81 36 10 24.1 96.40     LegendNANA
18:00 Legend Double Dagger 8.4 5.7 83 33 7 24.1 96.34     LegendNANA
19:00 Legend Double Dagger 8.2 5.7 84 35 11 24.1 96.25     Cloudy
20:00 Legend Double Dagger 8.6 5.5 81 33 10 24.1 96.20     Rain
21:00 Legend Double Dagger 8.2 5.8 85 33 4 19.3 96.17     Rain
22:00 Legend Double Dagger 7.4 6.7 95 32 5 19.3 96.17     Rain
23:00 Legend Double Dagger 7.1 6.5 96 1 8 16.1 96.15     Rain

Notes on Data Quality.

Legend

  • E = Estimated
  • M = Missing
  • NA = Not Available
  • ‡ = Partner data that is not subject to review by the National Climate Archives
Date modified: